Time,TemperatureF,DewpointF,PressureIn,WindDirection,WindDirectionDegrees,WindSpeedMPH,WindSpeedGustMPH,Humidity,HourlyPrecipIn,Conditions,Clouds,dailyrainin,SoftwareType,DateUTC
2013-06-02 00:02:00,76.0,54.0,29.93,NW,320,6.0,-999.0,46,-99.99,,,-99.99,,2013-06-02 00:02:00,
2013-06-02 00:11:00,76.0,54.0,29.93,NW,320,6.0,-999.0,46,-99.99,,,-99.99,,2013-06-02 00:11:00,
2013-06-02 00:21:00,76.0,55.0,29.93,West,274,3.0,-999.0,48,-99.99,,,-99.99,,2013-06-02 00:21:00,
2013-06-02 00:32:00,75.0,55.0,29.93,WNW,288,5.0,-999.0,49,-99.99,,,-99.99,,2013-06-02 00:32:00,
2013-06-02 00:41:00,75.0,55.0,29.93,WNW,288,5.0,-999.0,49,-99.99,,,-99.99,,2013-06-02 00:41:00,
2013-06-02 00:52:00,75.0,54.0,29.94,NNW,332,6.0,-999.0,48,-99.99,,,-99.99,,2013-06-02 00:52:00,
2013-06-02 01:01:00,74.0,54.0,29.94,WNW,291,5.0,-999.0,50,-99.99,,,-99.99,,2013-06-02 01:01:00,
2013-06-02 01:11:00,74.0,54.0,29.94,WNW,291,5.0,-999.0,50,-99.99,,,-99.99,,2013-06-02 01:11:00,
2013-06-02 01:21:00,74.0,55.0,29.95,NW,309,3.0,-999.0,51,-99.99,,,-99.99,,2013-06-02 01:21:00,
2013-06-02 01:32:00,73.0,54.0,29.95,WNW,298,4.0,-999.0,52,-99.99,,,-99.99,,2013-06-02 01:32:00,
2013-06-02 01:41:00,72.0,54.0,29.96,NW,323,3.0,-999.0,54,-99.99,,,-99.99,,2013-06-02 01:41:00,
2013-06-02 01:52:00,72.0,54.0,29.96,NW,323,3.0,-999.0,54,-99.99,,,-99.99,,2013-06-02 01:52:00,
2013-06-02 02:01:00,71.0,54.0,29.96,West,271,2.0,-999.0,55,-99.99,,,-99.99,,2013-06-02 02:01:00,
2013-06-02 02:12:00,71.0,54.0,29.97,NW,306,2.0,-999.0,56,-99.99,,,-99.99,,2013-06-02 02:12:00,
2013-06-02 02:21:00,71.0,54.0,29.97,NW,306,2.0,-999.0,56,-99.99,,,-99.99,,2013-06-02 02:21:00,
2013-06-02 02:32:00,70.0,54.0,29.97,NNW,328,2.0,-999.0,57,-99.99,,,-99.99,,2013-06-02 02:32:00,
2013-06-02 02:41:00,70.0,55.0,29.98,NW,325,2.0,-999.0,58,-99.99,,,-99.99,,2013-06-02 02:41:00,
2013-06-02 02:52:00,70.0,55.0,29.98,NW,325,2.0,-999.0,58,-99.99,,,-99.99,,2013-06-02 02:52:00,
2013-06-02 03:02:00,69.0,55.0,29.98,NW,311,2.0,-999.0,60,-99.99,,,-99.99,,2013-06-02 03:02:00,
2013-06-02 03:11:00,69.0,55.0,30.00,NW,306,1.0,-999.0,62,-99.99,,,-99.99,,2013-06-02 03:11:00,
2013-06-02 03:21:00,69.0,55.0,30.00,NW,306,1.0,-999.0,62,-99.99,,,-99.99,,2013-06-02 03:21:00,
2013-06-02 03:33:00,69.0,55.0,30.00,NW,315,1.0,-999.0,62,-99.99,,,-99.99,,2013-06-02 03:33:00,
2013-06-02 03:43:00,68.0,56.0,30.01,NW,313,0.0,-999.0,65,-99.99,,,-99.99,,2013-06-02 03:43:00,
2013-06-02 03:53:00,68.0,56.0,30.01,NW,313,0.0,-999.0,65,-99.99,,,-99.99,,2013-06-02 03:53:00,
2013-06-02 04:02:00,68.0,56.0,30.01,NW,313,0.0,-999.0,65,-99.99,,,-99.99,,2013-06-02 04:02:00,
2013-06-02 04:13:00,67.0,55.0,30.02,NW,318,0.0,-999.0,66,-99.99,,,-99.99,,2013-06-02 04:13:00,
2013-06-02 04:23:00,67.0,55.0,30.02,NW,318,0.0,-999.0,66,-99.99,,,-99.99,,2013-06-02 04:23:00,
2013-06-02 04:33:00,67.0,55.0,30.02,NW,318,0.0,-999.0,66,-99.99,,,-99.99,,2013-06-02 04:33:00,
2013-06-02 04:42:00,67.0,55.0,30.02,NW,318,0.0,-999.0,66,-99.99,,,-99.99,,2013-06-02 04:42:00,
2013-06-02 04:53:00,66.0,55.0,30.02,NW,318,0.0,-999.0,67,-99.99,,,-99.99,,2013-06-02 04:53:00,
2013-06-02 05:02:00,66.0,55.0,30.02,NW,318,0.0,-999.0,68,-99.99,,,-99.99,,2013-06-02 05:02:00,
2013-06-02 05:12:00,66.0,55.0,30.02,NW,318,0.0,-999.0,68,-99.99,,,-99.99,,2013-06-02 05:12:00,
2013-06-02 05:22:00,66.0,56.0,30.02,NW,318,0.0,-999.0,70,-99.99,,,-99.99,,2013-06-02 05:22:00,
2013-06-02 05:32:00,65.0,55.0,30.02,NW,318,0.0,-999.0,70,-99.99,,,-99.99,,2013-06-02 05:32:00,
2013-06-02 05:42:00,65.0,55.0,30.02,NW,318,0.0,-999.0,71,-99.99,,,-99.99,,2013-06-02 05:42:00,
2013-06-02 05:52:00,65.0,55.0,30.02,NW,318,0.0,-999.0,71,-99.99,,,-99.99,,2013-06-02 05:52:00,
2013-06-02 06:01:00,65.0,55.0,30.02,NW,318,0.0,-999.0,71,-99.99,,,-99.99,,2013-06-02 06:01:00,
2013-06-02 06:12:00,65.0,55.0,30.02,NW,318,0.0,-999.0,71,-99.99,,,-99.99,,2013-06-02 06:12:00,
2013-06-02 06:21:00,65.0,55.0,30.02,NW,318,0.0,-999.0,71,-99.99,,,-99.99,,2013-06-02 06:21:00,
2013-06-02 06:32:00,64.0,55.0,30.02,NW,318,0.0,-999.0,72,-99.99,,,-99.99,,2013-06-02 06:32:00,
2013-06-02 06:41:00,64.0,55.0,30.02,NW,318,0.0,-999.0,72,-99.99,,,-99.99,,2013-06-02 06:41:00,
2013-06-02 06:52:00,64.0,55.0,30.02,NW,318,0.0,-999.0,73,-99.99,,,-99.99,,2013-06-02 06:52:00,
2013-06-02 07:01:00,64.0,56.0,30.02,NW,318,0.0,-999.0,75,-99.99,,,-99.99,,2013-06-02 07:01:00,
2013-06-02 07:11:00,64.0,56.0,30.02,NW,318,0.0,-999.0,75,-99.99,,,-99.99,,2013-06-02 07:11:00,
2013-06-02 07:21:00,63.0,55.0,30.03,NW,311,0.0,-999.0,75,-99.99,,,-99.99,,2013-06-02 07:21:00,
2013-06-02 07:31:00,63.0,55.0,30.03,NW,311,0.0,-999.0,76,-99.99,,,-99.99,,2013-06-02 07:31:00,
2013-06-02 07:42:00,63.0,55.0,30.02,NW,325,0.0,-999.0,75,-99.99,,,-99.99,,2013-06-02 07:42:00,
2013-06-02 07:52:00,63.0,55.0,30.02,NW,325,0.0,-999.0,75,-99.99,,,-99.99,,2013-06-02 07:52:00,
2013-06-02 08:01:00,63.0,54.0,30.02,WNW,298,1.0,-999.0,73,-99.99,,,-99.99,,2013-06-02 08:01:00,
2013-06-02 08:11:00,63.0,53.0,30.02,NNW,328,2.0,-999.0,70,-99.99,,,-99.99,,2013-06-02 08:11:00,
2013-06-02 08:21:00,63.0,53.0,30.02,NNW,328,2.0,-999.0,70,-99.99,,,-99.99,,2013-06-02 08:21:00,
2013-06-02 08:31:00,63.0,53.0,30.02,NW,305,1.0,-999.0,69,-99.99,,,-99.99,,2013-06-02 08:31:00,
2013-06-02 08:41:00,63.0,53.0,30.04,NW,305,1.0,-999.0,69,-99.99,,,-99.99,,2013-06-02 08:41:00,
2013-06-02 08:52:00,63.0,53.0,30.04,NW,305,1.0,-999.0,69,-99.99,,,-99.99,,2013-06-02 08:52:00,
2013-06-02 09:01:00,63.0,53.0,30.04,WNW,299,1.0,-999.0,71,-99.99,,,-99.99,,2013-06-02 09:01:00,
2013-06-02 09:11:00,62.0,53.0,30.04,NW,312,1.0,-999.0,73,-99.99,,,-99.99,,2013-06-02 09:11:00,
2013-06-02 09:21:00,62.0,53.0,30.04,NW,312,1.0,-999.0,73,-99.99,,,-99.99,,2013-06-02 09:21:00,
2013-06-02 09:33:00,61.0,53.0,30.04,WNW,299,1.0,-999.0,74,-99.99,,,-99.99,,2013-06-02 09:33:00,
2013-06-02 09:42:00,61.0,53.0,30.04,WNW,299,1.0,-999.0,74,-99.99,,,-99.99,,2013-06-02 09:42:00,
2013-06-02 09:53:00,61.0,53.0,30.04,West,278,1.0,-999.0,75,-99.99,,,-99.99,,2013-06-02 09:53:00,
2013-06-02 10:02:00,61.0,53.0,30.04,WNW,292,1.0,-999.0,75,-99.99,,,-99.99,,2013-06-02 10:02:00,
2013-06-02 10:12:00,60.0,52.0,30.04,WNW,282,1.0,-999.0,76,-99.99,,,-99.99,,2013-06-02 10:12:00,
2013-06-02 10:22:00,60.0,52.0,30.04,WNW,282,1.0,-999.0,76,-99.99,,,-99.99,,2013-06-02 10:22:00,
2013-06-02 10:32:00,60.0,53.0,30.04,WNW,287,1.0,-999.0,77,-99.99,,,-99.99,,2013-06-02 10:32:00,
2013-06-02 10:42:00,60.0,53.0,30.04,WNW,287,1.0,-999.0,77,-99.99,,,-99.99,,2013-06-02 10:42:00,
2013-06-02 10:52:00,60.0,53.0,30.05,West,278,1.0,-999.0,78,-99.99,,,-99.99,,2013-06-02 10:52:00,
2013-06-02 11:02:00,59.0,52.0,30.04,WSW,256,1.0,-999.0,79,-99.99,,,-99.99,,2013-06-02 11:02:00,
2013-06-02 11:12:00,59.0,52.0,30.06,WNW,287,2.0,-999.0,78,-99.99,,,-99.99,,2013-06-02 11:12:00,
2013-06-02 11:21:00,59.0,52.0,30.06,WNW,287,2.0,-999.0,78,-99.99,,,-99.99,,2013-06-02 11:21:00,
2013-06-02 11:32:00,59.0,52.0,30.06,NW,318,2.0,-999.0,78,-99.99,,,-99.99,,2013-06-02 11:32:00,
2013-06-02 11:42:00,59.0,52.0,30.06,NW,318,2.0,-999.0,78,-99.99,,,-99.99,,2013-06-02 11:42:00,
2013-06-02 11:52:00,58.0,51.0,30.06,NNW,336,1.0,-999.0,78,-99.99,,,-99.99,,2013-06-02 11:52:00,
2013-06-02 12:01:00,58.0,51.0,30.06,West,274,1.0,-999.0,77,-99.99,,,-99.99,,2013-06-02 12:01:00,
2013-06-02 12:11:00,58.0,50.0,30.06,WNW,282,1.0,-999.0,75,-99.99,,,-99.99,,2013-06-02 12:11:00,
2013-06-02 12:21:00,58.0,50.0,30.06,WNW,282,1.0,-999.0,75,-99.99,,,-99.99,,2013-06-02 12:21:00,
2013-06-02 12:31:00,59.0,51.0,30.06,WNW,284,2.0,-999.0,74,-99.99,,,-99.99,,2013-06-02 12:31:00,
2013-06-02 12:42:00,59.0,51.0,30.06,WNW,284,2.0,-999.0,74,-99.99,,,-99.99,,2013-06-02 12:42:00,
2013-06-02 12:52:00,59.0,50.0,30.07,WNW,292,3.0,-999.0,72,-99.99,,,-99.99,,2013-06-02 12:52:00,
2013-06-02 13:01:00,59.0,50.0,30.07,West,277,3.0,-999.0,71,-99.99,,,-99.99,,2013-06-02 13:01:00,
2013-06-02 13:11:00,59.0,50.0,30.07,West,277,3.0,-999.0,71,-99.99,,,-99.99,,2013-06-02 13:11:00,
2013-06-02 13:21:00,60.0,50.0,30.07,WNW,285,3.0,-999.0,70,-99.99,,,-99.99,,2013-06-02 13:21:00,
2013-06-02 13:32:00,60.0,50.0,30.07,NW,311,3.0,-999.0,69,-99.99,,,-99.99,,2013-06-02 13:32:00,
2013-06-02 13:41:00,60.0,50.0,30.07,NW,311,3.0,-999.0,69,-99.99,,,-99.99,,2013-06-02 13:41:00,
2013-06-02 13:52:00,60.0,49.0,30.08,West,272,3.0,-999.0,68,-99.99,,,-99.99,,2013-06-02 13:52:00,
2013-06-02 14:01:00,61.0,50.0,30.08,North,360,3.0,-999.0,67,-99.99,,,-99.99,,2013-06-02 14:01:00,
2013-06-02 14:11:00,62.0,50.0,30.08,West,272,2.0,-999.0,65,-99.99,,,-99.99,,2013-06-02 14:11:00,
2013-06-02 14:21:00,62.0,50.0,30.08,West,272,2.0,-999.0,65,-99.99,,,-99.99,,2013-06-02 14:21:00,
2013-06-02 14:32:00,62.0,51.0,30.08,West,277,3.0,-999.0,66,-99.99,,,-99.99,,2013-06-02 14:32:00,
2013-06-02 14:42:00,62.0,51.0,30.08,West,277,3.0,-999.0,66,-99.99,,,-99.99,,2013-06-02 14:42:00,
2013-06-02 14:52:00,63.0,52.0,30.09,WNW,285,2.0,-999.0,67,-99.99,,,-99.99,,2013-06-02 14:52:00,
2013-06-02 15:01:00,64.0,52.0,30.09,NW,319,1.0,-999.0,65,-99.99,,,-99.99,,2013-06-02 15:01:00,
2013-06-02 15:11:00,64.0,52.0,30.09,NW,319,1.0,-999.0,65,-99.99,,,-99.99,,2013-06-02 15:11:00,
2013-06-02 15:21:00,65.0,52.0,30.09,NNW,336,1.0,-999.0,63,-99.99,,,-99.99,,2013-06-02 15:21:00,
2013-06-02 15:32:00,66.0,53.0,30.09,NW,318,1.0,-999.0,62,-99.99,,,-99.99,,2013-06-02 15:32:00,
2013-06-02 15:43:00,66.0,53.0,30.10,NNW,337,2.0,-999.0,62,-99.99,,,-99.99,,2013-06-02 15:43:00,
2013-06-02 15:53:00,66.0,53.0,30.10,NNW,337,2.0,-999.0,62,-99.99,,,-99.99,,2013-06-02 15:53:00,
2013-06-02 16:03:00,67.0,53.0,30.10,East,80,1.0,-999.0,61,-99.99,,,-99.99,,2013-06-02 16:03:00,
2013-06-02 16:13:00,67.0,54.0,30.09,WNW,287,1.0,-999.0,62,-99.99,,,-99.99,,2013-06-02 16:13:00,
2013-06-02 16:23:00,67.0,54.0,30.09,WNW,287,1.0,-999.0,62,-99.99,,,-99.99,,2013-06-02 16:23:00,
2013-06-02 16:33:00,68.0,54.0,30.09,NNW,332,1.0,-999.0,60,-99.99,,,-99.99,,2013-06-02 16:33:00,
2013-06-02 16:42:00,68.0,54.0,30.09,NNW,332,1.0,-999.0,60,-99.99,,,-99.99,,2013-06-02 16:42:00,
2013-06-02 16:52:00,67.0,53.0,30.09,NW,326,3.0,-999.0,60,-99.99,,,-99.99,,2013-06-02 16:52:00,
2013-06-02 17:02:00,67.0,53.0,30.09,NNW,332,2.0,-999.0,61,-99.99,,,-99.99,,2013-06-02 17:02:00,
2013-06-02 17:12:00,66.0,53.0,30.09,North,353,5.0,-999.0,62,-99.99,,,-99.99,,2013-06-02 17:12:00,
2013-06-02 17:22:00,66.0,53.0,30.09,North,353,5.0,-999.0,62,-99.99,,,-99.99,,2013-06-02 17:22:00,
2013-06-02 17:32:00,67.0,53.0,30.09,WNW,285,4.0,-999.0,60,-99.99,,,-99.99,,2013-06-02 17:32:00,
2013-06-02 17:42:00,67.0,53.0,30.09,West,271,5.0,-999.0,61,-99.99,,,-99.99,,2013-06-02 17:42:00,
2013-06-02 17:52:00,67.0,53.0,30.09,West,271,5.0,-999.0,61,-99.99,,,-99.99,,2013-06-02 17:52:00,
2013-06-02 18:01:00,67.0,52.0,30.09,WNW,289,3.0,-999.0,59,-99.99,,,-99.99,,2013-06-02 18:01:00,
2013-06-02 18:11:00,68.0,53.0,30.08,WNW,282,2.0,-999.0,58,-99.99,,,-99.99,,2013-06-02 18:11:00,
2013-06-02 18:21:00,68.0,53.0,30.08,WNW,282,2.0,-999.0,58,-99.99,,,-99.99,,2013-06-02 18:21:00,
2013-06-02 18:32:00,68.0,54.0,30.08,West,275,3.0,-999.0,60,-99.99,,,-99.99,,2013-06-02 18:32:00,
2013-06-02 18:42:00,68.0,53.0,30.08,WNW,298,6.0,-999.0,58,-99.99,,,-99.99,,2013-06-02 18:42:00,
2013-06-02 18:52:00,68.0,53.0,30.08,WNW,298,6.0,-999.0,58,-99.99,,,-99.99,,2013-06-02 18:52:00,
2013-06-02 19:01:00,69.0,53.0,30.08,WNW,301,3.0,-999.0,57,-99.99,,,-99.99,,2013-06-02 19:01:00,
2013-06-02 19:11:00,69.0,53.0,30.08,WNW,301,3.0,-999.0,57,-99.99,,,-99.99,,2013-06-02 19:11:00,
2013-06-02 19:21:00,68.0,53.0,30.07,WNW,284,5.0,-999.0,59,-99.99,,,-99.99,,2013-06-02 19:21:00,
2013-06-02 19:32:00,68.0,52.0,30.07,West,272,6.0,-999.0,57,-99.99,,,-99.99,,2013-06-02 19:32:00,
2013-06-02 19:42:00,68.0,52.0,30.07,West,272,6.0,-999.0,57,-99.99,,,-99.99,,2013-06-02 19:42:00,
2013-06-02 19:52:00,69.0,52.0,30.06,West,265,4.0,-999.0,55,-99.99,,,-99.99,,2013-06-02 19:52:00,
2013-06-02 20:02:00,69.0,53.0,30.06,West,275,3.0,-999.0,56,-99.99,,,-99.99,,2013-06-02 20:02:00,
2013-06-02 20:11:00,69.0,53.0,30.06,West,275,3.0,-999.0,56,-99.99,,,-99.99,,2013-06-02 20:11:00,
2013-06-02 20:21:00,69.0,52.0,30.05,West,275,5.0,-999.0,55,-99.99,,,-99.99,,2013-06-02 20:21:00,
2013-06-02 20:32:00,70.0,54.0,30.06,North,10,3.0,-999.0,56,-99.99,,,-99.99,,2013-06-02 20:32:00,
2013-06-02 20:42:00,70.0,54.0,30.06,North,10,3.0,-999.0,56,-99.99,,,-99.99,,2013-06-02 20:42:00,
2013-06-02 20:52:00,71.0,53.0,30.05,WNW,289,2.0,-999.0,53,-99.99,,,-99.99,,2013-06-02 20:52:00,
2013-06-02 21:01:00,72.0,53.0,30.05,NNW,333,3.0,-999.0,51,-99.99,,,-99.99,,2013-06-02 21:01:00,
2013-06-02 21:11:00,72.0,54.0,30.03,WNW,284,1.0,-999.0,54,-99.99,,,-99.99,,2013-06-02 21:11:00,
2013-06-02 21:21:00,72.0,54.0,30.03,WNW,284,1.0,-999.0,54,-99.99,,,-99.99,,2013-06-02 21:21:00,
2013-06-02 21:33:00,72.0,54.0,30.03,West,277,1.0,-999.0,53,-99.99,,,-99.99,,2013-06-02 21:33:00,
2013-06-02 21:42:00,72.0,54.0,30.03,West,277,1.0,-999.0,53,-99.99,,,-99.99,,2013-06-02 21:42:00,
2013-06-02 21:53:00,71.0,54.0,30.03,NW,308,2.0,-999.0,54,-99.99,,,-99.99,,2013-06-02 21:53:00,
2013-06-02 22:03:00,71.0,54.0,30.03,NNW,347,1.0,-999.0,56,-99.99,,,-99.99,,2013-06-02 22:03:00,
2013-06-02 22:12:00,70.0,54.0,30.03,NE,42,0.0,-999.0,57,-99.99,,,-99.99,,2013-06-02 22:12:00,
2013-06-02 22:23:00,70.0,54.0,30.03,NE,42,0.0,-999.0,57,-99.99,,,-99.99,,2013-06-02 22:23:00,
2013-06-02 22:33:00,71.0,55.0,30.03,NNW,343,0.0,-999.0,58,-99.99,,,-99.99,,2013-06-02 22:33:00,
2013-06-02 22:42:00,71.0,55.0,30.03,NNW,343,0.0,-999.0,58,-99.99,,,-99.99,,2013-06-02 22:42:00,
2013-06-02 22:52:00,70.0,54.0,30.02,North,356,0.0,-999.0,57,-99.99,,,-99.99,,2013-06-02 22:52:00,
2013-06-02 23:02:00,70.0,55.0,30.02,ENE,78,1.0,-999.0,58,-99.99,,,-99.99,,2013-06-02 23:02:00,
2013-06-02 23:12:00,70.0,55.0,30.02,ENE,78,1.0,-999.0,58,-99.99,,,-99.99,,2013-06-02 23:12:00,
2013-06-02 23:22:00,71.0,54.0,30.02,NW,319,2.0,-999.0,56,-99.99,,,-99.99,,2013-06-02 23:22:00,
2013-06-02 23:32:00,71.0,54.0,30.02,NNW,337,2.0,-999.0,55,-99.99,,,-99.99,,2013-06-02 23:32:00,
2013-06-02 23:42:00,71.0,54.0,30.02,NNW,337,2.0,-999.0,55,-99.99,,,-99.99,,2013-06-02 23:42:00,
2013-06-02 23:52:00,71.0,54.0,30.02,North,360,2.0,-999.0,54,-99.99,,,-99.99,,2013-06-02 23:52:00,